Back to catalog

STARLINK-1269

AliveCommunicationsVLEO
NORAD 45197·PAYLOAD·🇺🇸 United States

Launched Feb 17, 2020 from Cape Canaveral Space Force Station

Loading…

Next Passes (next 24 hours)

TLE

FreshSource: CelesTrak SupGP

Epoch: Sep 14, 2026, 13:15 UTC

1 45197C 20012V   26257.55256944  .00007340  00000+0  16415-3 0  2573
2 45197  53.1507 235.1134 0003408  46.3235 233.4290 15.42901007    19

Track STARLINK-1269 in real time with AllMySat

Download on the App Store